Regional Weather Roundup
Issued by NWS

Home | Current Version | Previous Version | Text Only | Print | Product List | Glossary Off
Versions: 1 2 3 4 5 6 7 8 9 10 11 12 13 14 15 16 17 18 19 20 21 22 23 24 25 26 27 28 29 30 31 32 33 34 35 36 37 38 39 40 41 42 43 44 45 46 47 48 49 50

000
ASUS43 KLMK 182102
RWRKY
KENTUCKY REGIONAL WEATHER ROUNDUP
NATIONAL WEATHER SERVICE LOUISVILLE KY
400 PM EST SAT FEB 18 2017

NOTE "FAIR" INDICATES FEW OR NO CLOUDS BELOW 12,000 FEET
WITH NO SIGNIFICANT WEATHER AND/OR OBSTRUCTIONS TO VISIBILITY.

KYZ001>023-026-027-061>063-070>075-182200-
WESTERN AND SOUTH CENTRAL KENTUCKY

CITY           SKY/WX    TMP DP  RH WIND       PRES   REMARKS
PADUCAH        LGT RAIN  54  50  86 CALM      29.87R
HENDERSON      CLOUDY    52  46  82 SW6       29.87S
OWENSBORO      CLOUDY    53  50  89 SW5       29.88S
HOPKINSVILLE   CLOUDY    54  50  87 S5        29.88S
BOWLING GREEN  CLOUDY    52  49  89 SW6       29.90S
GLASGOW        NOT AVBL
$$

KYZ024-025-028>034-038-045-046-053-182200-
NORTH CENTRAL KENTUCKY

CITY           SKY/WX    TMP DP  RH WIND       PRES   REMARKS
LOUISVILLE/SDF LGT RAIN  53  47  79 SW8       29.86S
LOUISVILLE/LOU LGT RAIN  53  46  77 SW6       29.87R
FORT KNOX      LGT RAIN  51  48  87 SW7       29.86R
$$

KYZ035>037-039>044-047>052-055>060-089>105-182200-
NORTHEAST KENTUCKY

CITY           SKY/WX    TMP DP  RH WIND       PRES   REMARKS
LEXINGTON      LGT RAIN  50  45  83 S6        29.88S
COVINGTON      CLOUDY    60  41  49 SW15      29.82S
FRANKFORT      LGT RAIN  51  45  79 S5        29.87R
$$

KYZ054-064>069-076>088-106>120-182200-
SOUTHEAST KENTUCKY

CITY           SKY/WX    TMP DP  RH WIND       PRES   REMARKS
JACKSON        CLOUDY    50  41  71 VRB5      29.89F
LONDON         CLOUDY    50  44  80 S5        29.89F
SOMERSET       CLOUDY    50  45  81 S7        29.90F
MIDDLESBORO    DRIZZLE   49  46  92 CALM      29.91F
MONTICELLO     NOT AVBL
$$





USA.gov is the U.S. government's official web portal to all federal, state and local government web resources and services.